Find Starlink 5697

NORAD ID: 55589 Int'l Des: 2023-020 Owner: SPXS Country: US Constellation: starlink operational
LEOCIRCULAR

リアルタイム位置

3D地球を読み込み中...

Starlink 5697について

説明を読み込み中...

次回通過

Passes for default location (London). Set your location on the main map for personalized predictions.

高度履歴

Loading altitude history...

軌道要素

1 55589U 23020W 26125.12461221 .00000393 00000-0 23823-4 0 9991
2 55589 43.0043 46.4926 0001185 246.0271 114.0457 15.27575713177545
Epoch: May 5, 2026 • Age: 35 hours

現在のステータス

高度 485.7 km
速度 7.63 km/s
衛星直下点 37.08°N, 20.8°E
打ち上げ日 Feb 12, 2023
運用期間 3.2 years
タイプ internet

技術仕様

分類 Payload
質量 305.00 kg
乾燥質量 290.00 kg
総質量 305.00 kg
長さ 0.20 m
直径 2.80 m
スパン 9.00 m
形状 Box + pan
製造者 SPXS
バスタイプ Starlink
フェーズステータス In Orbit
所有者/国 SPXS/US

Most Searched